#timestamp,LO_Frequency,Hit,StdDev 
1651543215.0,286046995.3,N
1651543215.9,286046995.3,N
1651543235.8,286046997.7,N
1651543255.6,286046997.8,N
1651543275.4,286046997.9,N
1651543295.3,286046996.8,N
1651543315.1,286046996.5,N
1651543335.9,286046998.0,N
1651543355.7,286046997.0,N
1651543375.5,286046997.8,N
1651543395.4,286046995.2,N
1651543415.2,286046996.3,N
1651543435.1,286046994.0,Y
1651543436.0,286046994.0,P
1651543455.8,286046997.0,N
1651543475.6,286046996.5,N
1651543495.5,286046997.4,N
1651543515.3,286046997.8,N
1651543535.1,286046997.7,N
1651543555.9,286046995.2,Y
1651543575.7,286046998.4,P
1651543595.6,286046999.3,N
1651543615.4,286046997.4,N
1651543635.2,286046997.8,N
1651543655.1,286046997.6,N
1651543656.0,286046997.6,Y
1651543675.8,286046998.6,P
1651543695.6,286046998.7,P
1651543715.5,286046997.0,P
1651543735.3,286046999.6,N
1651543755.2,286046999.6,N
1651543775.9,286046996.8,Y
1651543795.7,286046998.9,P
1651543815.6,286047001.0,P
1651543835.4,286047000.4,N
1651543855.2,286047000.5,N
1651543875.1,286047000.4,N
1651543876.0,286047000.4,N
1651543895.8,286046998.1,N
1651543915.7,286046999.0,N
1651543935.5,286046999.3,N
1651543955.3,286046996.5,Y
1651543975.2,286046996.9,P
1651543995.0,286046999.3,N
1651543995.9,286046999.3,N
1651544015.8,286046997.7,N
1651544035.6,286046997.4,N
1651544055.4,286046997.9,N
1651544075.3,286046997.2,N
1651544095.1,286046995.0,Y
1651544115.8,286046999.4,P
1651544135.7,286046997.3,P
1651544155.5,286046996.8,P
1651544175.4,286046996.7,Y
1651544195.2,286047000.9,P
1651544215.0,286047000.8,N
1651544215.9,286047000.8,N
1651544235.8,286047000.8,N
1651544255.6,286046999.4,N
1651544275.5,286046998.8,N
1651544295.3,286046999.1,N
1651544315.1,286046998.4,N
1651544335.9,286046998.5,N
1651544355.7,286047001.2,N
1651544375.5,286047000.6,N
1651544395.4,286047001.2,N
1651544415.2,286046998.2,N
1651544435.1,286046998.4,N
1651544436.0,286046998.4,N
1651544455.8,286046999.4,N
1651544475.6,286046999.1,N
1651544495.5,286046998.3,N
1651544515.3,286046998.9,N
1651544535.2,286046999.5,N
1651544555.9,286046998.9,N
1651544575.7,286046996.6,Y
1651544595.6,286046998.9,P
1651544615.4,286046998.7,P
1651544635.3,286046998.8,P
1651544655.1,286046998.1,Y
1651544656.0,286046998.1,P
1651544675.8,286047000.6,N
1651544695.7,286047000.4,N
1651544715.5,286046998.3,N
1651544735.3,286046998.6,N
1651544755.2,286046998.7,N
1651544775.0,286046998.7,N
1651544775.9,286046998.7,N
1651544795.8,286046998.7,N
1651544815.6,286046998.6,N
1651544835.4,286046996.6,Y
1651544855.3,286046998.6,P
1651544875.1,286046999.4,P
1651544895.9,286046998.9,P
1651544915.7,286046998.7,Y
1651544935.5,286047000.3,P
1651544955.4,286047001.2,N
1651544975.2,286047000.4,N
1651544995.0,286047000.0,N
1651544995.9,286047000.0,N
1651545015.8,286046999.9,N
1651545035.6,286046998.2,N
1651545055.5,286046998.1,N
1651545075.3,286046999.3,N
1651545095.1,286046998.7,N
1651545115.9,286046998.7,N
1651545135.7,286047001.0,N
1651545155.5,286046998.2,N
1651545175.4,286047000.8,N
1651545195.2,286046998.6,N
1651545215.1,286047000.4,N
1651545216.0,286047000.4,N
1651545235.8,286047000.6,N
1651545255.6,286047000.6,N
1651545275.5,286047000.3,N
1651545295.3,286047000.8,N
1651545315.1,286046998.3,N
1651545335.9,286046998.8,N
1651545355.7,286046998.7,N
1651545375.6,286046998.1,N
1651545395.4,286046998.8,N
1651545415.2,286046997.1,N
1651545435.1,286046997.0,N
1651545436.0,286046997.0,N
1651545455.8,286046999.1,N
1651545475.6,286046998.7,N
1651545495.5,286046999.5,N
1651545515.3,286046999.3,N
1651545535.2,286046998.7,N
1651545555.9,286047000.3,N
1651545575.7,286047000.7,N
1651545595.6,286046998.3,N
1651545615.4,286046998.3,N
1651545635.2,286047000.7,N
1651545655.1,286047001.2,N
1651545656.0,286047001.2,N
1651545675.8,286046998.5,N
1651545695.7,286047001.1,N
1651545715.5,286046998.8,N
1651545735.3,286046999.4,N
1651545755.2,286046998.1,N
1651545775.0,286047000.8,N
1651545775.9,286047000.8,N
1651545795.7,286046996.9,N
1651545815.6,286046999.1,N
1651545835.4,286046998.7,N
1651545855.3,286046998.3,N
1651545875.1,286047000.8,N
1651545876.0,286047000.8,N
1651545895.8,286047000.4,N
1651545915.7,286047000.7,N
1651545935.5,286047000.7,N
1651545955.4,286046998.5,N
1651545975.2,286047000.8,N
1651545995.0,286046998.2,N
1651545995.9,286046998.2,N
1651546015.8,286047000.3,N
1651546035.6,286047000.1,N
1651546055.4,286047002.3,N
1651546075.3,286047000.1,N
1651546095.1,286047002.1,N
1651546115.9,286047002.5,N
1651546135.7,286047002.2,N
1651546155.5,286047001.9,N
1651546175.4,286047002.3,N
1651546195.2,286047002.1,N
1651546215.0,286047004.4,N
1651546215.9,286047004.4,N
1651546235.8,286047002.5,N
1651546255.6,286047002.0,N
1651546275.5,286047001.6,N
1651546295.3,286047001.9,N
1651546315.1,286047004.0,N
1651546335.9,286047003.3,N
1651546355.7,286047005.6,Y
1651546375.6,286047004.4,P
1651546395.4,286047001.3,N
1651546415.2,286047001.7,N
1651546435.1,286047004.4,Y
1651546436.0,286047004.4,P
1651546455.8,286047000.5,N
1651546475.7,286047000.9,N
1651546495.5,286047001.0,N
1651546515.3,286047001.2,N
1651546535.2,286047000.9,N
1651546555.9,286046998.5,N
1651546575.7,286046999.1,N
1651546595.6,286046998.5,N
1651546615.4,286046998.9,N
1651546635.3,286046998.7,N
1651546655.1,286046998.4,N
1651546656.0,286046998.4,N
1651546675.8,286046998.8,N
1651546695.7,286046996.6,N
1651546715.5,286046999.3,N
1651546735.3,286047000.6,N
1651546755.2,286047000.0,N
1651546775.0,286047002.3,N
1651546775.9,286047002.3,N
1651546795.8,286047001.6,N
